Showing default

FLOCK 4BE 24, 60505

Orbit data source: Space-Track

FLOCK 4BE 24, 60505 is a payload satellite owned by Planet (US) in SSO that was launched on Fri, 16 Aug 2024 UTC via an FALCON 9 launch vehicle from the Air Force Western Test Range (AFWTR). Payloads include a variety of satellites, spacecraft, and rockets equipped with specific instruments for various scientific and technological missions. These include communications satellites like Starlink; space stations such as the ISS; scientific satellites like the Hubble; Earth observation satellites from companies like Planet Labs, Umbra, and HawkEye 360; GPS; miniature CubeSats for education and research; and military/defense satellites.

Loading next visibility...
FLOCK 4BE 24 details
Identifier
60505, 2024-149AP
Orbit
SSO
Last TLE update19 hours ago
Origin
Flag of USPlanet (US)
ManufacturerPlanet
MissionOperational spacecraft
Bus & MotorCUBESAT 3U, Unknown motor
Mass5.7 kg wet, 5.7 kg dry
Launch date (UTC)
2024-08-16 (4 months ago)
Launch vehicle
FALCON 9
Launch site
Air Force Western Test Range (AFWTR)
Object type
Payload
Rocket body
Debris
Shape & HBRUnknown
Radar Cross SectionMedium (>0.1 m² and <1 m²)

Expand to show TLE details & history

TLE from 19 hours ago
0 FLOCK 4BE 24
1 60505U 24149AP  24355.79360510  .00014254  00000-0  60807-3 0  9996
2 60505  97.4252  69.5888 0006484  64.7213 295.4694 15.23006632 19148
Epoch: 2024-12-20T19:02Z
Definitive object data (Epoch: 2024-12-20T19:02:47.48Z)
Latitude-0.00013°
Longitude54.03697°
Altitude497.957 km
Speed7.617 km/s
True Right ascension04h 38m 21s
True Declination0° 00' 00"
Sunlit
Object was in full shadow at TLE epoch
Visualization TLE readout
Latitude41.97105°
Longitude48.12935°
Altitude498.718 km
Speed7.622 km/s
Apparent Right ascension02h 45m 08s
Apparent Declination3° 08' 17"
Sunlit
Object is in full shadow
Visualization observer readout
Local Sidereal Time13:11:15
Azimuth327.729° NNW
Elevation-41.864°
Doppler factor1
Orbital elements
Apogee altitude498.196 km
Perigee altitude489.285 km
Semi-major axis6,871.877 km
Eccentricity0.0006484
Inclination97.4252°
RAAN69.5888°
Arg. of periapsis64.7213°
True anomaly295.4023°
Mean anomaly295.4694°
Eccentric anomaly295.43585°
Mean motion3.81004 °/min
BSTAR0.00060807
Orbital period94.49 mins
Loading maneuver chart data...
Loading historical data...
Loading historical data...
Loading historical data...
Loading historical data...
Loading historical data...
Loading historical data...
Loading historical data...

FLOCK 4BE 24 Visibility forecast

Observer location: undefined°, undefined

Span
Click to sort rows by Start time (UTC) header in descending order
Start Az.
Max El. time (UTC)
Max El. Az.
Max El.
End time (UTC)
End Az.
6 mins2024-12-21 17:41:11.060Z27.229° NE2024-12-21 17:44:11.060Z100.855° ESE35.825°2024-12-21 17:47:11.060Z171.668° S
4 mins2024-12-22 05:53:11.060Z231.711° WSW2024-12-22 05:54:11.060Z257.088° W23.08°2024-12-22 05:57:11.060Z318.896° NNW
|